TVS101 LKTB-LKTB

Flight info

Callsign TVS101
Flight time 0h 53m
Altitude 2000
Route TRAFFIC PATTERNS
Aircraft A320/M-SDE2E3FGIJ1LORWXYZ/HB1

Departure

Time 2026-04-22 18:39
Airport Brno-Tuřany Airport (LKTB)

Arrival

Time 2026-04-22 19:32
Airport Brno-Tuřany Airport (LKTB)
Time Latitude Longitude Altitude Speed Heading
2026-04-22 18:24 49.15394 16.68967 800 ft 0 kts 183°
2026-04-22 18:37 49.15366 16.68985 795 ft 11 kts 134°
2026-04-22 18:37 49.15344 16.69145 794 ft 17 kts 97°
2026-04-22 18:37 49.15338 16.69222 794 ft 8 kts 100°
2026-04-22 18:37 49.15290 16.69242 793 ft 4 kts 187°
2026-04-22 18:38 49.15261 16.69236 793 ft 4 kts 187°
2026-04-22 18:38 49.15253 16.69235 793 ft 0 kts 187°
2026-04-22 18:39 49.15154 16.69164 790 ft 8 kts 264°
2026-04-22 18:39 49.15173 16.68951 789 ft 54 kts 277°
2026-04-22 18:39 49.15269 16.67836 809 ft 149 kts 279°
2026-04-22 18:39 49.15409 16.66198 1697 ft 164 kts 279°
2026-04-22 18:40 49.15502 16.64265 2248 ft 204 kts 263°
2026-04-22 18:40 49.14501 16.62548 2333 ft 240 kts 185°
2026-04-22 18:40 49.13238 16.63719 2146 ft 216 kts 119°
2026-04-22 18:40 49.12764 16.65815 2092 ft 207 kts 94°
2026-04-22 18:41 49.12515 16.67977 2050 ft 203 kts 95°
2026-04-22 18:41 49.12275 16.70051 1949 ft 194 kts 94°
2026-04-22 18:41 49.12040 16.72040 1843 ft 188 kts 94°
2026-04-22 18:41 49.11796 16.73990 1758 ft 185 kts 96°
2026-04-22 18:42 49.11564 16.75964 1923 ft 187 kts 90°
2026-04-22 18:42 49.11885 16.77546 1960 ft 145 kts 34°
2026-04-22 18:42 49.12778 16.77729 1708 ft 132 kts 349°
2026-04-22 18:42 49.13616 16.77272 1546 ft 129 kts 318°
2026-04-22 18:43 49.14194 16.76231 1337 ft 128 kts 312°
2026-04-22 18:43 49.14592 16.75043 1178 ft 128 kts 283°
2026-04-22 18:43 49.14745 16.73698 1143 ft 128 kts 283°
2026-04-22 18:43 49.14863 16.72356 992 ft 126 kts 280°
2026-04-22 18:44 49.14987 16.71034 820 ft 126 kts 282°
2026-04-22 18:44 49.15105 16.69767 838 ft 133 kts 279°
2026-04-22 18:44 49.15237 16.68100 1473 ft 179 kts 278°
2026-04-22 18:44 49.15369 16.66085 2086 ft 205 kts 279°
2026-04-22 18:45 49.14986 16.64082 2367 ft 206 kts 220°
2026-04-22 18:45 49.13607 16.63584 2270 ft 210 kts 165°
2026-04-22 18:45 49.12431 16.64698 2166 ft 196 kts 121°
2026-04-22 18:45 49.11986 16.66577 2221 ft 188 kts 95°
2026-04-22 18:46 49.11755 16.68550 2216 ft 189 kts 92°
2026-04-22 18:46 49.11578 16.70504 2169 ft 180 kts 90°
2026-04-22 18:46 49.11432 16.72333 2179 ft 171 kts 90°
2026-04-22 18:46 49.11270 16.74114 2148 ft 169 kts 90°
2026-04-22 18:47 49.11272 16.75862 2147 ft 161 kts 70°
2026-04-22 18:47 49.11850 16.77242 2102 ft 148 kts 30°
2026-04-22 18:47 49.12761 16.77439 1928 ft 132 kts 341°
2026-04-22 18:47 49.13498 16.76667 1731 ft 128 kts 325°
2026-04-22 18:48 49.14126 16.75706 1427 ft 131 kts 300°
2026-04-22 18:48 49.14525 16.74473 1246 ft 128 kts 298°
2026-04-22 18:48 49.14777 16.73175 1095 ft 128 kts 283°
2026-04-22 18:48 49.14913 16.71852 905 ft 126 kts 280°
2026-04-22 18:49 49.15028 16.70551 789 ft 116 kts 280°
2026-04-22 18:49 49.15147 16.69179 1089 ft 146 kts 278°
2026-04-22 18:49 49.15274 16.67535 2039 ft 166 kts 282°
2026-04-22 18:49 49.15363 16.65573 2415 ft 204 kts 266°
2026-04-22 18:50 49.14596 16.63785 2371 ft 207 kts 208°
2026-04-22 18:50 49.13222 16.63681 2310 ft 202 kts 151°
2026-04-22 18:50 49.12306 16.65160 2283 ft 191 kts 107°
2026-04-22 18:50 49.12006 16.67085 2309 ft 187 kts 95°
2026-04-22 18:51 49.11789 16.69037 2257 ft 186 kts 94°
2026-04-22 18:51 49.11563 16.70950 2183 ft 179 kts 95°
2026-04-22 18:51 49.11304 16.72762 2119 ft 176 kts 96°
2026-04-22 18:51 49.11198 16.74516 2061 ft 152 kts 74°
2026-04-22 18:52 49.11604 16.75825 1967 ft 128 kts 40°
2026-04-22 18:52 49.12344 16.76453 1899 ft 120 kts 12°
2026-04-22 18:52 49.13187 16.76525 1808 ft 124 kts 354°
2026-04-22 18:52 49.13972 16.76002 1553 ft 127 kts 322°
2026-04-22 18:53 49.14494 16.74920 1312 ft 128 kts 297°
2026-04-22 18:53 49.14743 16.73614 1110 ft 127 kts 285°
2026-04-22 18:53 49.14867 16.72280 985 ft 125 kts 281°
2026-04-22 18:53 49.14990 16.70962 816 ft 125 kts 281°
2026-04-22 18:54 49.15066 16.70136 784 ft 112 kts 279°
2026-04-22 18:54 49.15200 16.68641 1037 ft 170 kts 279°
2026-04-22 18:54 49.15349 16.66612 1586 ft 209 kts 279°
2026-04-22 18:54 49.15472 16.64370 2142 ft 207 kts 271°
2026-04-22 18:55 49.14832 16.62489 2257 ft 207 kts 216°
2026-04-22 18:55 49.13466 16.62106 2142 ft 203 kts 162°
2026-04-22 18:55 49.12383 16.63321 2093 ft 194 kts 115°
2026-04-22 18:55 49.11998 16.65278 2165 ft 195 kts 95°
2026-04-22 18:56 49.11779 16.67332 2105 ft 196 kts 93°
2026-04-22 18:56 49.11591 16.69384 2043 ft 194 kts 93°
2026-04-22 18:56 49.11401 16.71385 2025 ft 189 kts 93°
2026-04-22 18:56 49.11205 16.73324 1974 ft 180 kts 93°
2026-04-22 18:57 49.11020 16.75191 1952 ft 176 kts 92°
2026-04-22 18:57 49.10861 16.77036 1928 ft 175 kts 91°
2026-04-22 18:57 49.10747 16.78862 1951 ft 169 kts 77°
2026-04-22 18:57 49.11286 16.80307 1899 ft 155 kts 29°
2026-04-22 18:58 49.12239 16.80568 1948 ft 134 kts 348°
2026-04-22 18:58 49.13014 16.79863 1927 ft 131 kts 315°
2026-04-22 18:58 49.13516 16.78731 1756 ft 128 kts 305°
2026-04-22 18:58 49.13964 16.77574 1598 ft 126 kts 304°
2026-04-22 18:59 49.14356 16.76406 1447 ft 126 kts 294°
2026-04-22 18:59 49.14607 16.75086 1348 ft 130 kts 285°
2026-04-22 18:59 49.14748 16.73728 1167 ft 129 kts 280°
2026-04-22 18:59 49.14860 16.72381 995 ft 126 kts 282°
2026-04-22 19:00 49.14981 16.71066 824 ft 124 kts 283°
2026-04-22 19:00 49.15086 16.69831 888 ft 120 kts 278°
2026-04-22 19:00 49.15149 16.68373 1427 ft 170 kts 276°
2026-04-22 19:00 49.15200 16.66362 2025 ft 197 kts 276°
2026-04-22 19:01 49.14970 16.64305 2439 ft 203 kts 244°
2026-04-22 19:01 49.13902 16.62974 2346 ft 205 kts 195°
2026-04-22 19:01 49.12543 16.63287 2255 ft 199 kts 141°
2026-04-22 19:01 49.11847 16.64956 2220 ft 185 kts 93°
2026-04-22 19:02 49.11670 16.66901 2227 ft 187 kts 94°
2026-04-22 19:02 49.11457 16.68873 2103 ft 184 kts 94°
2026-04-22 19:02 49.11276 16.70803 1974 ft 183 kts 92°
2026-04-22 19:02 49.11076 16.72729 1953 ft 183 kts 94°
2026-04-22 19:03 49.10887 16.74560 1897 ft 166 kts 88°
2026-04-22 19:03 49.11080 16.76156 1843 ft 142 kts 56°
2026-04-22 19:03 49.11711 16.77112 1753 ft 125 kts 23°
2026-04-22 19:03 49.12537 16.77375 1694 ft 123 kts 356°
2026-04-22 19:04 49.13360 16.76989 1611 ft 124 kts 332°
2026-04-22 19:04 49.14038 16.76156 1490 ft 126 kts 316°
2026-04-22 19:04 49.14526 16.75047 1314 ft 127 kts 297°
2026-04-22 19:04 49.14751 16.73738 1190 ft 129 kts 281°
2026-04-22 19:05 49.14853 16.72388 1010 ft 126 kts 281°
2026-04-22 19:05 49.14980 16.71073 809 ft 125 kts 281°
2026-04-22 19:05 49.15091 16.69866 782 ft 116 kts 277°
2026-04-22 19:05 49.15217 16.68299 1029 ft 178 kts 279°
2026-04-22 19:06 49.15354 16.66346 1984 ft 185 kts 281°
2026-04-22 19:06 49.15191 16.64285 2366 ft 207 kts 242°
2026-04-22 19:06 49.14041 16.63140 2435 ft 205 kts 190°
2026-04-22 19:07 49.11538 16.64577 2343 ft 195 kts 121°
2026-04-22 19:07 49.11078 16.66438 2320 ft 184 kts 87°
2026-04-22 19:07 49.11041 16.68363 2424 ft 186 kts 90°
2026-04-22 19:07 49.10862 16.70317 2279 ft 186 kts 95°
2026-04-22 19:08 49.10612 16.72219 2139 ft 178 kts 95°
2026-04-22 19:08 49.10427 16.74009 2047 ft 164 kts 91°
2026-04-22 19:08 49.10446 16.75655 1960 ft 147 kts 68°
2026-04-22 19:08 49.10926 16.76868 1863 ft 126 kts 38°
2026-04-22 19:09 49.11671 16.77499 1637 ft 123 kts 14°
2026-04-22 19:09 49.12516 16.77609 1465 ft 122 kts 355°
2026-04-22 19:09 49.13335 16.77299 1440 ft 122 kts 336°
2026-04-22 19:09 49.13991 16.76495 1505 ft 124 kts 307°
2026-04-22 19:10 49.14424 16.75320 1393 ft 128 kts 297°
2026-04-22 19:10 49.14713 16.74039 1207 ft 128 kts 284°
2026-04-22 19:10 49.14837 16.72693 1035 ft 127 kts 279°
2026-04-22 19:10 49.14953 16.71366 875 ft 125 kts 282°
2026-04-22 19:11 49.15073 16.70110 784 ft 111 kts 274°
2026-04-22 19:11 49.15199 16.68635 1079 ft 169 kts 279°
2026-04-22 19:11 49.15337 16.66707 1891 ft 195 kts 281°
2026-04-22 19:11 49.15384 16.64612 2232 ft 198 kts 266°
2026-04-22 19:12 49.14626 16.62785 2365 ft 210 kts 213°
2026-04-22 19:12 49.13267 16.62482 2348 ft 200 kts 165°
2026-04-22 19:12 49.12117 16.63575 2374 ft 195 kts 123°
2026-04-22 19:12 49.11653 16.65429 2396 ft 187 kts 96°
2026-04-22 19:13 49.11456 16.67380 2353 ft 182 kts 91°
2026-04-22 19:13 49.11318 16.69203 2292 ft 165 kts 91°
2026-04-22 19:13 49.11184 16.70895 2173 ft 156 kts 90°
2026-04-22 19:13 49.11051 16.72502 2040 ft 149 kts 90°
2026-04-22 19:14 49.10962 16.74042 1915 ft 140 kts 79°
2026-04-22 19:14 49.11260 16.75354 1769 ft 127 kts 48°
2026-04-22 19:14 49.11924 16.76156 1590 ft 121 kts 19°
2026-04-22 19:14 49.12745 16.76363 1525 ft 121 kts 359°
2026-04-22 19:15 49.13300 16.76275 1548 ft 121 kts 350°
2026-04-22 19:15 49.14271 16.75437 1410 ft 125 kts 302°
2026-04-22 19:15 49.14633 16.74219 1231 ft 127 kts 289°
2026-04-22 19:15 49.14818 16.72919 1080 ft 128 kts 280°
2026-04-22 19:16 49.14928 16.71587 898 ft 125 kts 282°
2026-04-22 19:16 49.15049 16.70309 781 ft 113 kts 278°
2026-04-22 19:16 49.15170 16.69023 863 ft 153 kts 278°
2026-04-22 19:16 49.15310 16.67286 1783 ft 179 kts 279°
2026-04-22 19:17 49.15407 16.65300 2332 ft 191 kts 271°
2026-04-22 19:17 49.14935 16.63369 2336 ft 201 kts 233°
2026-04-22 19:17 49.13768 16.62266 2227 ft 201 kts 192°
2026-04-22 19:17 49.12403 16.62483 2151 ft 199 kts 151°
2026-04-22 19:18 49.11435 16.63872 2155 ft 190 kts 111°
2026-04-22 19:18 49.11099 16.65772 2246 ft 185 kts 94°
2026-04-22 19:18 49.10912 16.67728 2288 ft 190 kts 92°
2026-04-22 19:18 49.10742 16.69669 2232 ft 177 kts 92°
2026-04-22 19:19 49.10573 16.71418 2238 ft 158 kts 91°
2026-04-22 19:19 49.10567 16.73012 2104 ft 144 kts 69°
2026-04-22 19:19 49.10997 16.74279 2009 ft 128 kts 40°
2026-04-22 19:19 49.11710 16.74980 1874 ft 120 kts 14°
2026-04-22 19:20 49.12539 16.75098 1708 ft 121 kts 354°
2026-04-22 19:20 49.13361 16.74821 1525 ft 122 kts 340°
2026-04-22 19:20 49.14150 16.74319 1289 ft 124 kts 334°
2026-04-22 19:20 49.14752 16.73398 1085 ft 127 kts 286°
2026-04-22 19:21 49.14886 16.72073 949 ft 125 kts 282°
2026-04-22 19:21 49.15007 16.70773 793 ft 123 kts 281°
2026-04-22 19:21 49.15123 16.69560 805 ft 130 kts 277°
2026-04-22 19:21 49.15211 16.68044 1816 ft 141 kts 277°
2026-04-22 19:22 49.15243 16.66428 2192 ft 172 kts 276°
2026-04-22 19:22 49.15233 16.64395 2270 ft 195 kts 265°
2026-04-22 19:22 49.14593 16.62656 2323 ft 198 kts 219°
2026-04-22 19:22 49.13290 16.62021 2261 ft 201 kts 176°
2026-04-22 19:23 49.12018 16.62779 2175 ft 198 kts 138°
2026-04-22 19:23 49.11174 16.64367 2129 ft 190 kts 107°
2026-04-22 19:23 49.10842 16.66289 2178 ft 188 kts 98°
2026-04-22 19:23 49.10556 16.68226 2194 ft 186 kts 97°
2026-04-22 19:24 49.10314 16.70158 2202 ft 184 kts 93°
2026-04-22 19:24 49.10162 16.72095 2219 ft 182 kts 90°
2026-04-22 19:24 49.10061 16.73868 2264 ft 153 kts 89°
2026-04-22 19:24 49.10069 16.75388 2169 ft 135 kts 66°
2026-04-22 19:25 49.10517 16.76518 2012 ft 121 kts 39°
2026-04-22 19:25 49.11203 16.77233 1849 ft 119 kts 23°
2026-04-22 19:25 49.11999 16.77625 1702 ft 121 kts
2026-04-22 19:25 49.12838 16.77700 1566 ft 121 kts 354°
2026-04-22 19:26 49.13650 16.77399 1473 ft 120 kts 337°
2026-04-22 19:26 49.14321 16.76640 1403 ft 122 kts 312°
2026-04-22 19:26 49.14611 16.75440 1321 ft 126 kts 273°
2026-04-22 19:26 49.14711 16.74118 1194 ft 125 kts 283°
2026-04-22 19:27 49.14830 16.72809 1040 ft 125 kts 280°
2026-04-22 19:27 49.14941 16.71496 875 ft 124 kts 281°
2026-04-22 19:27 49.15061 16.70227 781 ft 112 kts 278°
2026-04-22 19:27 49.15188 16.68719 991 ft 169 kts 280°
2026-04-22 19:28 49.15312 16.67065 2178 ft 166 kts 282°
2026-04-22 19:28 49.15289 16.65210 2366 ft 186 kts 249°
2026-04-22 19:28 49.14261 16.63978 2143 ft 198 kts 197°
2026-04-22 19:28 49.12900 16.63969 2107 ft 197 kts 158°
2026-04-22 19:29 49.11881 16.65249 2201 ft 191 kts 113°
2026-04-22 19:29 49.11552 16.67154 2267 ft 185 kts 96°
2026-04-22 19:29 49.11318 16.69065 2205 ft 185 kts 95°
2026-04-22 19:29 49.11091 16.70996 2117 ft 182 kts 95°
2026-04-22 19:30 49.10944 16.72265 2035 ft 177 kts 94°
2026-04-22 19:30 49.10845 16.74629 1890 ft 154 kts 67°
2026-04-22 19:30 49.11336 16.75910 1731 ft 132 kts 41°
2026-04-22 19:30 49.12083 16.76585 1533 ft 123 kts 13°
2026-04-22 19:31 49.12927 16.76633 1394 ft 122 kts 349°
2026-04-22 19:31 49.13715 16.76192 1390 ft 121 kts 330°
2026-04-22 19:31 49.14304 16.75279 1341 ft 123 kts 304°
2026-04-22 19:31 49.14656 16.74092 1138 ft 124 kts 287°
2026-04-22 19:32 49.14827 16.72813 991 ft 124 kts 279°
2026-04-22 19:32 49.14938 16.71516 875 ft 124 kts 281°
2026-04-22 19:32 49.15056 16.70252 780 ft 109 kts 278°
2026-04-22 19:32 49.15122 16.69515 785 ft 49 kts 277°
2026-04-22 19:33 49.15162 16.69228 784 ft 14 kts 330°
2026-04-22 19:33 49.15252 16.69233 787 ft 11 kts
2026-04-22 19:33 49.15332 16.69256 787 ft 13 kts 23°
2026-04-22 19:33 49.15378 16.69309 788 ft 1 kts 98°
2026-04-22 19:34 49.15368 16.69311 788 ft 0 kts 185°
2026-04-22 19:34 49.15367 16.69311 788 ft 0 kts 186°